Location: Hall+in+Tirol
(47.2830°N, 11.5170°E)
Time: 07:24:47
(UTC+02:00)

Amateur Radio Satellites - All Passes

Search period start: 25 May 2015 06:54
Search period end: 26 May 2015 06:54
Location: Hall+in+Tirol, 47.2830°N, 11.5170°E

Satellite Date Start Highest point End Downlink Frequencies (MHz)
Time Altitude Azimuth
Cubesat XI-IV 25 May 06:59:10 07:03:59 33° 95° (E) 07:08:50 437.490
AUBIESAT-1 25 May 07:00:30 07:04:35 54° 67° (ENE) 07:08:22 437.475
PHONESAT 2.4 25 May 07:05:25 07:08:23 26° 180° (S) 07:11:21 2401.200-2431.200
VERMONT LUNAR 25 May 07:06:22 07:08:43 19° 193° (SSW) 07:11:04 437.305
CUBESAT XI-V 25 May 07:08:53 07:13:22 50° 261° (W) 07:17:53 437.345
ISS 25 May 07:14:18 07:17:23 37° 215° (SW) 07:20:26 145.825
YUBILEINY 25 May 07:20:06 07:27:31 33° 84° (E) 07:35:05 435.215
STRAND 1 25 May 07:28:02 07:33:08 75° 257° (WSW) 07:38:16 437.568
PCSat 25 May 07:38:20 07:38:33 10° 12° (NNE) 07:38:51 145.827
PRISM 25 May 07:59:07 08:02:40 27° 265° (W) 08:06:12 437.425
AIST 1 25 May 08:01:48 08:05:56 40° 74° (ENE) 08:10:05
BRITE-PL 25 May 08:03:09 08:06:39 17° 85° (E) 08:10:18 437.365/2234.400
GOMX 1 25 May 08:18:32 08:21:14 14° 83° (E) 08:24:09 467.674
CUTE-I 25 May 08:19:07 08:24:22 56° 290° (WNW) 08:29:36 437.470
Cosmos 2491 25 May 08:19:43 08:28:13 52° 270° (W) 08:36:35 435.465 / 435.565
AO-7 25 May 08:20:57 08:26:20 19° 318° (NW) 08:31:26 29.400- 29.500
SO-50 25 May 08:24:24 08:25:40 11° 353° (N) 08:26:53 436.795
M-CUBED/EXP-1 PRIME 25 May 08:26:05 08:29:06 18° 262° (W) 08:31:52 437.505
AUBIESAT-1 25 May 08:36:57 08:39:37 16° 263° (W) 08:42:02 437.475
Cubesat XI-IV 25 May 08:39:11 08:44:10 39° 294° (WNW) 08:49:06 437.490
PHONESAT 2.4 25 May 08:43:30 08:45:56 18° 197° (SSW) 08:48:21 2401.200-2431.200
STRAND 1 25 May 09:12:51 09:13:22 10° 277° (W) 09:13:33 437.568
YUBILEINY 25 May 09:15:13 09:23:54 62° 285° (WNW) 09:32:34 435.215
PCSat 25 May 09:19:40 09:24:03 24° 37° (NE) 09:28:30 145.827
CANX-2 25 May 09:22:26 09:26:10 30° 95° (E) 09:29:55 2200.000
RS-15 25 May 09:23:02 09:32:54 44° 111° (ESE) 09:43:10 29.354- 29.394
CINEMA 3 25 May 09:25:27 09:28:35 18° 87° (E) 09:31:46 145.822/145.860
CUTE 1.7 + AOD 2 25 May 09:26:22 09:30:06 30° 95° (E) 09:33:50 437.475
DOVE 4 25 May 09:29:17 09:34:08 38° 95° (E) 09:38:47 437.250
TIGRISAT 25 May 09:30:41 09:33:21 16° 60° (ENE) 09:36:10 435.000
HO-68 25 May 09:30:59 09:37:42 43° 97° (E) 09:44:27 435.675
AIST 1 25 May 09:40:00 09:43:22 21° 272° (W) 09:46:37
BRITE-PL 25 May 09:40:11 09:45:56 82° 286° (WNW) 09:51:29 437.365/2234.400
UNISAT 6 25 May 09:49:00 09:52:36 23° 64° (ENE) 09:56:16 437.425
UWE-3 25 May 09:49:34 09:51:00 12° 85° (E) 09:52:39 435.000/436.395/437.385
SEEDS 25 May 09:52:27 09:56:30 46° 98° (E) 10:00:33 437.485
GOMX 1 25 May 09:54:44 10:00:15 89° 295° (WNW) 10:05:30 467.674
Cosmos 2504 25 May 10:02:22 10:09:37 36° 87° (E) 10:16:36 435.465 / 435.565
CUTE-I 25 May 10:02:27 10:03:27 10° 308° (NW) 10:04:11 437.470
FUNcube-1 25 May 10:05:26 10:07:23 13° 86° (E) 10:09:30 145.935
SO-50 25 May 10:06:02 10:08:21 13° 17° (NNE) 10:10:45 436.795
COMPASS 1 25 May 10:09:24 10:13:31 58° 100° (E) 10:17:36 437.405
BUGSAT 1 25 May 10:13:56 10:15:37 12° 59° (ENE) 10:17:28 437.445
QB50P1 25 May 10:19:14 10:22:19 20° 64° (ENE) 10:25:31 145.935-145.965
POLYITAN 1 25 May 10:19:51 10:23:01 21° 64° (ENE) 10:26:17 437.675
AAUSAT CUBESAT 2 25 May 10:23:31 10:27:40 71° 101° (E) 10:31:47 437.432
ANTELSAT 25 May 10:31:06 10:35:40 53° 71° (ENE) 10:40:13 437.575/2403.000
CUBEBUG 2 25 May 10:31:44 10:35:58 38° 96° (E) 10:40:04 437.445
ZACube-1 25 May 10:43:32 10:47:28 32° 95° (E) 10:51:20 437.345
NANOSAT C BR1 25 May 10:50:25 10:54:22 38° 69° (ENE) 10:58:23 145.865
UKube-1 25 May 10:50:49 10:53:44 18° 90° (E) 10:56:45 .
DX 1 25 May 10:55:52 10:59:13 21° 92° (E) 11:02:40 434.975-435.025
QB50P2 25 May 10:56:34 11:00:40 45° 71° (ENE) 11:04:48 145.880/145.840
HUMSAT D 25 May 10:56:42 10:59:50 21° 91° (E) 11:03:00 437.325/437.525
CANX-2 25 May 10:58:25 11:02:04 28° 293° (WNW) 11:05:39 2200.000
Oscar 11 25 May 11:01:03 11:05:23 82° 103° (ESE) 11:09:41 145.826/435.025
CINEMA 3 25 May 11:01:29 11:06:18 60° 288° (WNW) 11:10:51 145.822/145.860
VELOX 1 25 May 11:02:07 11:04:12 13° 87° (E) 11:06:31 145.980
CUTE 1.7 + AOD 2 25 May 11:02:19 11:05:58 28° 293° (WNW) 11:09:34 437.475
PCSat 25 May 11:02:39 11:08:06 78° 239° (WSW) 11:13:31 145.827
TIGRISAT 25 May 11:04:52 11:09:36 77° 259° (WSW) 11:14:17 435.000
DELFI C3 25 May 11:06:00 11:10:01 70° 102° (ESE) 11:14:01 145.870
DOVE 4 25 May 11:07:09 11:11:47 32° 294° (WNW) 11:16:12 437.250
POPSAT HIP 1 25 May 11:09:17 11:13:29 59° 73° (ENE) 11:17:45 437.405
DUCHIFAT 1 25 May 11:13:05 11:17:18 64° 73° (ENE) 11:21:34 145.980
YUBILEINY 25 May 11:17:59 11:23:04 16° 311° (NW) 11:27:43 435.215
HO-68 25 May 11:18:46 11:25:31 45° 297° (WNW) 11:32:10 435.675
BRITE-PL 25 May 11:20:11 11:23:38 16° 303° (WNW) 11:26:50 437.365/2234.400
UWE-3 25 May 11:23:47 11:28:16 80° 284° (WNW) 11:32:35 435.000/436.395/437.385
UNISAT 6 25 May 11:24:33 11:29:06 49° 261° (W) 11:33:38 437.425
SEEDS 25 May 11:28:59 11:32:02 19° 296° (WNW) 11:34:57 437.485
AISAT 25 May 11:31:39 11:35:28 27° 94° (E) 11:39:19 437.250
RS-15 25 May 11:33:59 11:44:52 66° 316° (NW) 11:56:10 29.354- 29.394
GOMX 1 25 May 11:34:14 11:37:37 16° 302° (WNW) 11:40:45 467.674
FUNcube-1 25 May 11:39:56 11:44:19 70° 286° (WNW) 11:48:33 145.935
SO-50 25 May 11:45:48 11:50:21 35° 40° (NE) 11:54:54 436.795
COMPASS 1 25 May 11:46:11 11:48:48 16° 297° (WNW) 11:51:18 437.405
BUGSAT 1 25 May 11:46:21 11:50:30 82° 257° (WSW) 11:54:45 437.445
QB50P1 25 May 11:53:45 11:57:54 48° 261° (W) 12:02:05 145.935-145.965
POLYITAN 1 25 May 11:54:29 11:58:39 46° 261° (W) 12:02:51 437.675
GONETS M04 25 May 11:54:31 11:56:48 12° 71° (ENE) 11:59:45
Cosmos 2504 25 May 11:54:39 12:02:49 55° 286° (WNW) 12:10:25 435.465 / 435.565
AAUSAT CUBESAT 2 25 May 12:00:40 12:02:48 14° 299° (WNW) 12:04:46 437.432
CUSAT 1 25 May 12:08:26 12:12:33 16° 76° (ENE) 12:17:19 437.405
CUBEBUG 2 25 May 12:08:44 12:12:31 26° 295° (WNW) 12:16:07 437.445
ANTELSAT 25 May 12:09:19 12:12:47 20° 270° (W) 12:16:07 437.575/2403.000
ZACube-1 25 May 12:19:59 12:23:47 28° 293° (WNW) 12:27:26 437.345
50 SAT 25 May 12:23:23 12:27:18 80° 286° (WNW) 12:31:10 437.505
UKube-1 25 May 12:25:58 12:30:13 52° 289° (WNW) 12:34:26 .
NANOSAT C BR1 25 May 12:26:53 12:30:21 23° 268° (W) 12:33:46 145.865
TISAT 1 25 May 12:27:13 12:28:16 11° 86° (E) 12:29:33 437.305
ESTCUBE 1 25 May 12:31:00 12:35:30 62° 101° (E) 12:40:00 437.505/2401.250
DX 1 25 May 12:31:30 12:35:42 43° 291° (WNW) 12:39:51 434.975-435.025
HUMSAT D 25 May 12:31:50 12:35:47 40° 290° (WNW) 12:39:39 437.325/437.525
QB50P2 25 May 12:33:36 12:36:49 20° 269° (W) 12:39:56 145.880/145.840
VELOX 1 25 May 12:36:51 12:41:22 73° 286° (WNW) 12:45:49 145.980
Oscar 11 25 May 12:39:00 12:41:00 13° 300° (WNW) 12:42:50 145.826/435.025
Oscar 19 25 May 12:39:27 12:43:38 26° 63° (ENE) 12:47:55 437.125/150
CUBEBUG 1 25 May 12:41:23 12:45:51 70° 102° (ESE) 12:50:16 437.445
DELFI C3 25 May 12:42:42 12:44:39 13° 299° (WNW) 12:46:27 145.870
POPSAT HIP 1 25 May 12:47:12 12:49:49 15° 271° (W) 12:52:18 437.405
PCSat 25 May 12:48:25 12:50:44 12° 256° (WSW) 12:52:47 145.827
DUCHIFAT 1 25 May 12:51:13 12:53:37 14° 272° (W) 12:55:51 145.980
ITAMSAT 1 25 May 12:51:39 12:53:20 12° 54° (NE) 12:55:16 435.822/435.867
DANDE 25 May 13:02:16 13:08:16 30° 83° (E) 13:15:17 436.750
UWE-3 25 May 13:02:46 13:04:03 11° 303° (WNW) 13:05:09 435.000/436.395/437.385
AISAT 25 May 13:07:59 13:12:08 36° 292° (WNW) 13:16:14 437.250
HO-68 25 May 13:09:17 13:11:37 12° 319° (NW) 13:13:37 435.675
Gurwin Techsat 1B 25 May 13:14:56 13:18:15 18° 58° (ENE) 13:21:44 435.225
SO-50 25 May 13:26:18 13:31:03 46° 240° (WSW) 13:35:43 436.795
SPROUT 25 May 13:28:39 13:33:00 64° 102° (ESE) 13:37:17 437.525
GONETS M04 25 May 13:43:18 13:51:50 57° 91° (E) 14:00:27
CUSAT 1 25 May 13:46:33 13:53:49 70° 97° (E) 14:02:07 437.405
AO-7 25 May 13:48:06 13:53:09 19° 42° (NE) 13:58:31 29.400- 29.500
RS-15 25 May 13:49:58 13:59:50 34° 347° (NNW) 14:10:03 29.354- 29.394
ITUPSAT 1 25 May 13:52:14 13:54:59 16° 88° (E) 13:57:56 437.325
Cosmos 2504 25 May 13:55:04 13:58:22 12° 311° (NW) 14:01:08 435.465 / 435.565
TISAT 1 25 May 14:00:24 14:04:43 82° 285° (WNW) 14:08:58 437.305
BEESAT 25 May 14:00:54 14:04:14 19° 90° (E) 14:07:41 436.000
SWISSCUBE 25 May 14:08:41 14:12:32 24° 93° (E) 14:16:28 437.505
ESTCUBE 1 25 May 14:08:54 14:11:58 18° 298° (WNW) 14:14:54 437.505/2401.250
VELOX 1 25 May 14:16:15 14:17:11 10° 304° (WNW) 14:17:53 145.980
Oscar 19 25 May 14:17:40 14:22:44 50° 261° (W) 14:27:49 437.125/150
CUBEBUG 1 25 May 14:19:00 14:21:43 16° 299° (WNW) 14:24:19 437.445
ITAMSAT 1 25 May 14:26:52 14:31:58 67° 72° (ENE) 14:37:10 435.822/435.867
JAS-2 25 May 14:29:16 14:33:30 19° 59° (ENE) 14:37:38 435.910
HORYU 2 25 May 14:33:42 14:36:00 14° 59° (ENE) 14:38:28 437.375
Cosmos 2499 25 May 14:38:52 14:44:51 25° 83° (E) 14:50:46 435.465 / 435.565
DANDE 25 May 14:43:40 14:50:50 69° 286° (WNW) 14:59:20 436.750
Gurwin Techsat 1B 25 May 14:52:19 14:57:38 82° 256° (WSW) 15:03:00 435.225
SPROUT 25 May 15:05:55 15:08:38 16° 299° (WNW) 15:11:13 437.525
ITUPSAT 1 25 May 15:28:40 15:33:28 70° 287° (WNW) 15:38:12 437.325
CUSAT 1 25 May 15:30:32 15:37:18 32° 299° (WNW) 15:44:31 437.405
AO-7 25 May 15:36:24 15:44:30 62° 64° (ENE) 15:52:42 29.400- 29.500
BEESAT 25 May 15:37:47 15:42:29 56° 289° (WNW) 15:47:09 436.000
TISAT 1 25 May 15:38:41 15:39:49 11° 302° (WNW) 15:40:44 437.305
GONETS M04 25 May 15:41:01 15:49:10 38° 294° (WNW) 15:57:13
SWISSCUBE 25 May 15:46:04 15:50:37 44° 291° (WNW) 15:55:08 437.505
STARS 25 May 15:47:30 15:51:11 25° 93° (E) 15:54:54 437.465
RS-15 25 May 16:05:50 16:16:08 38° 20° (NNE) 16:26:57 29.354- 29.394
HORYU 2 25 May 16:07:36 16:12:06 79° 256° (WSW) 16:16:38 437.375
ITAMSAT 1 25 May 16:08:28 16:12:04 18° 271° (W) 16:15:29 435.822/435.867
JAS-2 25 May 16:11:23 16:18:08 86° 255° (WSW) 16:24:06 435.910
KKS-1 25 May 16:14:11 16:18:41 73° 103° (ESE) 16:23:09 437.445
Cosmos 2499 25 May 16:29:16 16:37:25 75° 281° (WNW) 16:44:59 435.465 / 435.565
DANDE 25 May 16:30:33 16:36:00 19° 310° (NW) 16:41:35 436.750
O/OREOS (USA 219) 25 May 16:35:55 16:40:18 52° 110° (ESE) 16:44:42 437.305
Gurwin Techsat 1B 25 May 16:36:26 16:38:35 12° 276° (W) 16:40:25 435.225
Cubesat XI-IV 25 May 16:48:00 16:50:16 13° 54° (NE) 16:52:45 437.490
ITUPSAT 1 25 May 17:09:12 17:10:34 11° 305° (NW) 17:11:41 437.325
STARS 25 May 17:23:38 17:27:44 37° 292° (WNW) 17:31:48 437.465
YUBILEINY 25 May 17:25:33 17:31:28 20° 54° (NE) 17:37:41 435.215
MOZHAYETS 4 25 May 17:28:58 17:33:16 39° 97° (E) 17:37:34
AO-7 25 May 17:30:21 17:37:49 35° 265° (W) 17:45:12 29.400- 29.500
KKS-1 25 May 17:52:08 17:54:49 15° 300° (WNW) 17:57:21 437.445
JAS-2 25 May 18:00:09 18:04:02 15° 273° (W) 18:07:23 435.910
BEESAT 3 25 May 18:04:28 18:05:50 12° 110° (ESE) 18:07:24 437.485
CUTE-I 25 May 18:04:29 18:09:34 50° 69° (ENE) 18:14:44 437.470
O/OREOS (USA 219) 25 May 18:16:29 18:20:04 22° 310° (NW) 18:23:33 437.305
RS-15 25 May 18:19:02 18:30:37 79° 49° (NE) 18:42:44 29.354- 29.394
HO-68 25 May 18:21:14 18:23:19 12° 42° (NE) 18:25:44 435.675
Cubesat XI-IV 25 May 18:24:16 18:29:33 73° 73° (ENE) 18:34:54 437.490
Cosmos 2499 25 May 18:27:02 18:32:04 17° 304° (NW) 18:36:34 435.465 / 435.565
BEESAT 2 25 May 18:48:20 18:51:45 26° 116° (ESE) 18:55:16 435.950
CUBESAT XI-V 25 May 19:02:22 19:06:34 32° 95° (E) 19:10:49 437.345
MOZHAYETS 4 25 May 19:06:32 19:10:21 26° 294° (WNW) 19:14:04
BRITE-PL 25 May 19:16:38 19:20:44 25° 62° (ENE) 19:25:10 437.365/2234.400
YUBILEINY 25 May 19:21:18 19:30:03 79° 79° (E) 19:38:46 435.215
Cosmos 2491 25 May 19:28:13 19:36:10 42° 87° (E) 19:44:18 435.465 / 435.565
GOMX 1 25 May 19:29:00 19:32:52 22° 61° (ENE) 19:37:00 467.674
STRAND 1 25 May 19:35:40 19:40:06 29° 94° (E) 19:44:36 437.568
PRISM 25 May 19:37:45 19:41:25 30° 96° (E) 19:45:09 437.425
BEESAT 3 25 May 19:39:09 19:43:15 86° 307° (NW) 19:47:24 437.485
CUTE-I 25 May 19:45:32 19:49:57 26° 268° (W) 19:54:18 437.470
Cosmos 2504 25 May 19:51:47 19:55:10 14° 51° (NE) 19:58:53 435.465 / 435.565
HO-68 25 May 20:02:43 20:09:26 45° 63° (ENE) 20:16:12 435.675
AIST 2 25 May 20:03:37 20:07:40 44° 121° (ESE) 20:11:48 435.215
M-CUBED/EXP-1 PRIME 25 May 20:03:43 20:05:55 17° 98° (E) 20:08:11 437.505
Cubesat XI-IV 25 May 20:06:45 20:10:19 17° 272° (W) 20:13:41 437.490
AUBIESAT-1 25 May 20:13:29 20:15:53 19° 99° (E) 20:18:21 437.475
CANX-2 25 May 20:18:21 20:22:11 33° 69° (ENE) 20:26:03 2200.000
CUTE 1.7 + AOD 2 25 May 20:22:12 20:26:01 33° 69° (ENE) 20:29:52 437.475
Oscar 11 25 May 20:25:41 20:27:22 12° 59° (ENE) 20:29:13 145.826/435.025
BEESAT 2 25 May 20:25:46 20:29:42 41° 315° (NW) 20:33:40 435.950
CINEMA 3 25 May 20:29:33 20:33:36 26° 64° (ENE) 20:37:45 145.822/145.860
RS-15 25 May 20:32:07 20:42:18 36° 252° (WSW) 20:52:32 29.354- 29.394
AIST 1 25 May 20:35:32 20:38:35 20° 87° (E) 20:41:46
DOVE 4 25 May 20:37:10 20:42:09 53° 71° (ENE) 20:47:20 437.250
CUBESAT XI-V 25 May 20:39:48 20:44:00 32° 293° (WNW) 20:48:10 437.345
SEEDS 25 May 20:47:21 20:51:26 49° 72° (ENE) 20:55:32 437.485
UWE-3 25 May 20:49:02 20:51:59 17° 61° (ENE) 20:55:03 435.000/436.395/437.385
BRITE-PL 25 May 20:53:52 20:58:52 55° 262° (W) 21:04:16 437.365/2234.400
COMPASS 1 25 May 21:03:26 21:07:33 59° 74° (ENE) 21:11:41 437.405
FUNcube-1 25 May 21:03:48 21:06:50 18° 62° (ENE) 21:09:59 145.935
GOMX 1 25 May 21:05:24 21:10:30 65° 259° (W) 21:15:55 467.674
PRISM 25 May 21:13:16 21:16:50 28° 293° (WNW) 21:20:21 437.425
STRAND 1 25 May 21:14:38 21:19:28 41° 293° (WNW) 21:24:16 437.568
AAUSAT CUBESAT 2 25 May 21:17:04 21:21:13 72° 75° (ENE) 21:25:23 437.432
BEESAT 3 25 May 21:19:05 21:21:52 17° 328° (NNW) 21:24:36 437.485
YUBILEINY 25 May 21:19:17 21:26:03 25° 280° (W) 21:32:29 435.215
Cosmos 2491 25 May 21:24:24 21:32:56 51° 288° (WNW) 21:41:31 435.465 / 435.565
CUBEBUG 2 25 May 21:32:24 21:36:59 48° 71° (ENE) 21:41:35 437.445
M-CUBED/EXP-1 PRIME 25 May 21:37:56 21:40:58 31° 296° (WNW) 21:43:56 437.505
50 SAT 25 May 21:39:58 21:40:34 10° 59° (ENE) 21:41:21 437.505
ZACube-1 25 May 21:42:06 21:46:22 39° 69° (ENE) 21:50:39 437.345
AIST 2 25 May 21:42:39 21:46:25 29° 320° (NW) 21:50:11 435.215
Cosmos 2504 25 May 21:43:09 21:50:25 67° 77° (ENE) 21:57:33 435.465 / 435.565
AUBIESAT-1 25 May 21:47:52 21:50:48 28° 297° (WNW) 21:53:40 437.475
UKube-1 25 May 21:48:36 21:52:01 24° 64° (ENE) 21:55:31 .
HO-68 25 May 21:50:27 21:57:14 43° 263° (W) 22:04:00 435.675
HUMSAT D 25 May 21:51:25 21:54:52 24° 66° (ENE) 21:58:21 437.325/437.525
DX 1 25 May 21:54:24 21:58:07 28° 66° (ENE) 22:01:54 434.975-435.025
CANX-2 25 May 21:54:32 21:58:11 26° 267° (W) 22:01:45 2200.000
DELFI C3 25 May 21:56:09 22:00:08 65° 74° (ENE) 22:04:09 145.870
CUTE 1.7 + AOD 2 25 May 21:58:22 22:02:00 26° 267° (W) 22:05:35 437.475
Oscar 11 25 May 21:58:36 22:02:57 87° 263° (W) 22:07:19 145.826/435.025
ESTCUBE 1 25 May 22:00:24 22:01:50 12° 58° (ENE) 22:03:28 437.505/2401.250
VELOX 1 25 May 22:02:33 22:05:36 19° 62° (ENE) 22:08:47 145.980
CINEMA 3 25 May 22:05:42 22:10:32 48° 262° (W) 22:15:26 145.822/145.860
BEESAT 2 25 May 22:07:28 22:08:53 11° 337° (NNW) 22:10:14 435.950
CUBEBUG 1 25 May 22:07:42 22:09:03 11° 58° (ENE) 22:10:37 437.445
AIST 1 25 May 22:11:57 22:16:00 40° 286° (WNW) 22:20:04
DOVE 4 25 May 22:16:05 22:20:14 24° 270° (W) 22:24:25 437.250
UWE-3 25 May 22:23:21 22:28:02 69° 258° (WSW) 22:32:43 435.000/436.395/437.385
SEEDS 25 May 22:24:37 22:27:33 17° 270° (W) 22:30:21 437.485
AISAT 25 May 22:32:22 22:36:24 36° 68° (ENE) 22:40:32 437.250
FUNcube-1 25 May 22:38:11 22:42:45 62° 259° (W) 22:47:18 145.935
COMPASS 1 25 May 22:41:15 22:43:40 14° 272° (W) 22:45:56 437.405
CUSAT 1 25 May 22:41:26 22:45:55 17° 48° (NE) 22:50:15 437.405
TIGRISAT 25 May 22:54:43 22:57:38 17° 89° (E) 23:00:37 435.000
AAUSAT CUBESAT 2 25 May 22:55:41 22:57:24 12° 273° (W) 22:58:56 437.432
CUBEBUG 2 25 May 23:10:09 23:13:56 22° 269° (W) 23:17:37 437.445
50 SAT 25 May 23:10:40 23:14:41 89° 80° (E) 23:18:43 437.505
UNISAT 6 25 May 23:13:49 23:17:35 27° 93° (E) 23:21:20 437.425
ZACube-1 25 May 23:18:59 23:22:51 26° 267° (W) 23:26:39 437.345
TISAT 1 25 May 23:22:08 23:24:18 14° 60° (ENE) 23:26:37 437.305
UKube-1 25 May 23:23:53 23:27:59 40° 262° (W) 23:32:05 .
HUMSAT D 25 May 23:26:21 23:30:26 39° 263° (W) 23:34:29 437.325/437.525
BUGSAT 1 25 May 23:27:18 23:29:01 12° 87° (E) 23:30:56 437.445
Cosmos 2491 25 May 23:28:51 23:32:40 13° 316° (NW) 23:35:59 435.465 / 435.565
DX 1 25 May 23:30:21 23:34:18 33° 264° (W) 23:38:16 434.975-435.025
ESTCUBE 1 25 May 23:33:33 23:38:02 83° 73° (ENE) 23:42:33 437.505/2401.250
DELFI C3 25 May 23:33:57 23:35:45 12° 273° (W) 23:37:23 145.870
QB50P1 25 May 23:36:11 23:39:31 22° 92° (E) 23:42:55 145.935-145.965
POLYITAN 1 25 May 23:37:12 23:40:37 23° 92° (E) 23:44:04 437.675
VELOX 1 25 May 23:37:27 23:41:48 55° 260° (W) 23:46:13 145.980
Cosmos 2504 25 May 23:37:31 23:43:11 25° 278° (W) 23:48:37 435.465 / 435.565
DANDE 25 May 23:40:04 23:47:14 32° 60° (ENE) 23:53:30 436.750
CUBEBUG 1 25 May 23:40:23 23:44:45 85° 76° (ENE) 23:49:11 437.445
GONETS M04 25 May 23:49:41 23:57:26 34° 64° (ENE) 00:05:16
ANTELSAT 25 May 23:56:41 00:01:09 75° 102° (ESE) 00:05:28 437.575/2403.000
ISS 25 May 23:57:12 23:58:22 12° 134° (SE) 23:59:38 145.825
NANOSAT C BR1 26 May 00:07:39 00:11:47 45° 99° (E) 00:15:53 145.865
AISAT 26 May 00:09:16 00:13:05 27° 266° (W) 00:16:52 437.250
QB50P2 26 May 00:14:22 00:18:37 55° 100° (E) 00:22:48 145.880/145.840
CUSAT 1 26 May 00:22:52 00:30:36 67° 74° (ENE) 00:36:42 437.405
SPROUT 26 May 00:25:36 00:29:54 73° 74° (ENE) 00:34:15 437.525
POPSAT HIP 1 26 May 00:27:02 00:31:21 73° 102° (ESE) 00:35:38 437.405
DUCHIFAT 1 26 May 00:30:20 00:34:39 77° 103° (ESE) 00:38:54 145.980
TIGRISAT 26 May 00:30:27 00:34:47 52° 288° (WNW) 00:38:59 435.000
UNISAT 6 26 May 00:50:25 00:54:26 33° 292° (WNW) 00:58:19 437.425
TISAT 1 26 May 00:55:19 00:59:34 73° 257° (WSW) 01:03:51 437.305
BUGSAT 1 26 May 01:00:47 01:05:04 73° 286° (WNW) 01:09:19 437.445
ITUPSAT 1 26 May 01:01:47 01:05:42 26° 64° (ENE) 01:09:41 437.325
O/OREOS (USA 219) 26 May 01:03:52 01:07:30 24° 51° (NE) 01:11:10 437.305
BEESAT 26 May 01:10:13 01:14:22 31° 66° (ENE) 01:18:35 436.000
QB50P1 26 May 01:11:32 01:15:34 40° 290° (WNW) 01:19:33 145.935-145.965
POLYITAN 1 26 May 01:12:39 01:16:41 38° 291° (WNW) 01:20:38 437.675
ESTCUBE 1 26 May 01:13:54 01:15:37 12° 274° (W) 01:17:04 437.505/2401.250
SWISSCUBE 26 May 01:18:10 01:22:33 39° 68° (ENE) 01:27:00 437.505
CUBEBUG 1 26 May 01:20:33 01:21:50 11° 275° (W) 01:22:52 437.445
DANDE 26 May 01:23:06 01:31:15 66° 265° (W) 01:37:50 436.750
BEESAT 2 26 May 01:27:16 01:28:54 12° 24° (NNE) 01:30:38 435.950
ISS 26 May 01:31:04 01:34:17 66° 152° (SSE) 01:37:32 145.825
ANTELSAT 26 May 01:34:56 01:37:23 14° 300° (WNW) 01:39:40 437.575/2403.000
KKS-1 26 May 01:41:31 01:43:37 13° 59° (ENE) 01:45:53 437.445
NANOSAT C BR1 26 May 01:44:06 01:47:22 21° 296° (WNW) 01:50:31 145.865
GONETS M04 26 May 01:46:17 01:54:58 64° 267° (W) 02:03:31
PCSat 26 May 01:47:14 01:52:27 51° 117° (ESE) 01:57:43 145.827
QB50P2 26 May 01:51:11 01:54:08 18° 298° (WNW) 01:56:58 145.880/145.840
POPSAT HIP 1 26 May 02:04:20 02:06:43 14° 300° (WNW) 02:08:56 437.405
SPROUT 26 May 02:04:36 02:06:35 13° 273° (W) 02:08:23 437.525
CUSAT 1 26 May 02:06:28 02:12:32 26° 278° (W) 02:17:30 437.405
DUCHIFAT 1 26 May 02:07:43 02:09:55 14° 300° (WNW) 02:11:57 145.980
Cosmos 2499 26 May 02:16:40 02:23:26 45° 72° (ENE) 02:30:13 435.465 / 435.565
BEESAT 3 26 May 02:17:34 02:20:59 25° 38° (NE) 02:24:24 437.485
Oscar 19 26 May 02:25:55 02:30:52 45° 98° (E) 02:35:49 437.125/150
ITAMSAT 1 26 May 02:37:26 02:40:58 19° 89° (E) 02:44:40 435.822/435.867
ITUPSAT 1 26 May 02:38:54 02:43:25 42° 262° (W) 02:47:57 437.325
O/OREOS (USA 219) 26 May 02:42:52 02:47:10 46° 251° (WSW) 02:51:25 437.305
AIST 2 26 May 02:44:35 02:47:23 17° 30° (NNE) 02:50:12 435.215
STARS 26 May 02:47:15 02:51:14 34° 68° (ENE) 02:55:18 437.465
BEESAT 26 May 02:47:50 02:52:11 34° 264° (W) 02:56:31 436.000
SWISSCUBE 26 May 02:56:30 03:00:34 27° 267° (W) 03:04:33 437.505
VERMONT LUNAR 26 May 02:59:34 03:00:13 11° 156° (SSE) 03:00:56 437.305
BEESAT 2 26 May 03:04:01 03:08:02 46° 47° (NE) 03:11:59 435.950
Gurwin Techsat 1B 26 May 03:05:37 03:10:18 31° 94° (E) 03:15:02 435.225
ISS 26 May 03:07:43 03:10:51 41° 350° (N) 03:13:58 145.825
DANDE 26 May 03:08:55 03:12:48 14° 286° (WNW) 03:15:59 436.750
KKS-1 26 May 03:15:10 03:19:40 85° 258° (WSW) 03:24:12 437.445
PCSat 26 May 03:31:14 03:36:07 33° 317° (NW) 03:41:00 145.827
AO-7 26 May 03:36:30 03:40:30 15° 82° (E) 03:45:04 29.400- 29.500
SO-50 26 May 03:43:46 03:47:47 29° 116° (ESE) 03:51:59 436.795
GONETS M04 26 May 03:46:11 03:50:08 13° 288° (WNW) 03:53:30
BEESAT 3 26 May 03:55:14 03:59:13 50° 238° (WSW) 04:03:07 437.485
HORYU 2 26 May 03:56:57 03:59:35 16° 89° (E) 04:02:22 437.375
Oscar 19 26 May 04:05:40 04:10:03 28° 297° (WNW) 04:14:21 437.125/150
Cosmos 2499 26 May 04:10:07 04:16:28 36° 273° (W) 04:22:44 435.465 / 435.565
ITAMSAT 1 26 May 04:15:50 04:21:02 66° 288° (WNW) 04:26:12 435.822/435.867
AIST 2 26 May 04:22:24 04:26:40 79° 52° (NE) 04:30:51 435.215
STARS 26 May 04:23:52 04:27:44 28° 266° (W) 04:31:35 437.465
MOZHAYETS 4 26 May 04:33:47 04:38:15 53° 71° (ENE) 04:42:43
VERMONT LUNAR 26 May 04:34:12 04:36:46 22° 172° (S) 04:39:20 437.305
BEESAT 2 26 May 04:42:37 04:45:52 22° 245° (WSW) 04:49:01 435.950
ISS 26 May 04:44:33 04:47:41 41° 10° (N) 04:50:49 145.825
Gurwin Techsat 1B 26 May 04:45:26 04:50:24 41° 293° (WNW) 04:55:20 435.225
PHONESAT 2.4 26 May 04:46:19 04:48:35 17° 161° (SSE) 04:50:53 2401.200-2431.200
JAS-2 26 May 05:02:17 05:07:27 60° 101° (E) 05:12:38 435.910
PCSat 26 May 05:19:21 05:21:20 12° 342° (NNW) 05:23:13 145.827
SO-50 26 May 05:23:33 05:28:10 47° 316° (NW) 05:32:54 436.795
AO-7 26 May 05:26:46 05:35:08 69° 105° (ESE) 05:43:29 29.400- 29.500
HORYU 2 26 May 05:32:18 05:36:42 60° 288° (WNW) 05:41:03 437.375
Cosmos 2491 26 May 05:34:12 05:41:06 25° 58° (ENE) 05:48:13 435.465 / 435.565
ITAMSAT 1 26 May 05:57:44 05:59:39 12° 306° (NW) 06:01:20 435.822/435.867
AIST 2 26 May 06:02:37 06:04:42 13° 249° (WSW) 06:06:36 435.215
CUBESAT XI-V 26 May 06:08:45 06:13:05 44° 70° (ENE) 06:17:31 437.345
VERMONT LUNAR 26 May 06:10:54 06:13:27 22° 189° (S) 06:15:59 437.305
MOZHAYETS 4 26 May 06:12:34 06:15:51 19° 271° (W) 06:18:59
CUTE-I 26 May 06:19:36 06:22:33 15° 87° (E) 06:25:44 437.470
ISS 26 May 06:20:59 06:24:14 64° 210° (SSW) 06:27:28 145.825
PHONESAT 2.4 26 May 06:23:09 06:26:07 26° 178° (S) 06:29:05 2401.200-2431.200
PRISM 26 May 06:30:51 06:34:33 34° 68° (ENE) 06:38:19 437.425
YUBILEINY 26 May 06:33:23 06:38:39 19° 76° (ENE) 06:44:21 435.215
Cubesat XI-IV 26 May 06:38:58 06:43:05 23° 91° (E) 06:47:20 437.490
